User: anonymous   Login
Location: Unspecified
(0.0000°N, 0.0000°E)
Time: 22:34:51
(UTC+00:00)
Language:

RS-15 - Orbit

View from above orbital plane
View from above orbital plane
View from above satellite
View from above satellite

Ground track
Ground track

The orbit data is extracted from the following two-line orbital elements,

1 23439U 94085A   18174.43919214 -.00000026 +00000-0 +47497-3 0  9994
2 23439 064.8184 338.7214 0157081 180.9281 205.8218 11.27567374967273
Epoch (UTC): 23 June 2018 10:32:26
Eccentricity: 0.0157081
inclination: 64.8184°
perigee height: 1890 km
apogee height: 2154 km
right ascension of ascending node: 338.7214°
argument of perigee: 180.9281°
revolutions per day: 11.27567374
mean anomaly at epoch: 205.8218°
orbit number at epoch: 96727

The dashed part of the orbit path shows where the satellite is in the earth's shadow,  

DLR